St. Augustine, FL

9:29 AM EDT on May 30, 2017 (GMT -0400)
Saint Augustine

Weather History for KSGJ - February, 2014

Change the Weather History Date:

Sunday, February 23, 2014

  Actual Average Record
Temperature  
Mean Temperature 60 °F -  
Max Temperature 66 °F 65 °F 84 °F (1975)
Min Temperature 53 °F 49 °F 25 °F (1978)
Degree Days  
Heating Degree Days 6    
Growing Degree Days 10 (Base 50)    
Moisture  
Dew Point 58 °F    
Average Humidity 93    
Maximum Humidity 100    
Minimum Humidity 82    
Precipitation  
Precipitation 0.95 in - - ()
Sea Level Pressure  
Sea Level Pressure 30.08 in    
Wind  
Wind Speed 2 mph (NNW)    
Max Wind Speed 10 mph    
Max Gust Speed -    
Visibility 5 miles    
Events Rain , Thunderstorm    
Averages and records for this station are not official NWS values.
T = Trace of Precipitation, MM = Missing Value Source: NWS Daily Summary

Daily Weather History Graph

Daily Weather History Graph

Search for Another Location

Airport or City:

Trip Planner

Search our weather history database for the weather conditions in past years. The results will help you decide how hot, cold, wet, or windy it might be!

Date:

Astronomy

Feb. 23, 2014 Rise Set
Actual Time 6:57 AM EST 6:20 PM EST
Civil Twilight 6:33 AM EST 6:44 PM EST
Nautical Twilight 6:05 AM EST 7:12 PM EST
Astronomical Twilight 5:37 AM EST 7:40 PM EST
Moon 1:42 AM EST (2/23) 12:34 PM EST (2/23)
Length of Visible Light 12h 11m
Length of Day
11h 22m
Last Quarter, 39% of the Moon is Illuminated
Feb 23
Last Quarter
Mar 1
New
Mar 8
First Quarter
Mar 16
Full
Mar 23
Last Quarter

Hourly Weather History & Observations

Time (EST) Temp. Dew Point Humidity Pressure Visibility Wind Dir Wind Speed Gust Speed Precip Events Conditions
12:58 AM 54.0 °F 52.0 °F 93% 30.09 in - Calm Calm - N/A   Clear
1:58 AM 53.1 °F 52.0 °F 96% 30.08 in - Calm Calm - N/A   Clear
2:58 AM 53.1 °F 52.0 °F 96% 30.07 in - Calm Calm - N/A   Clear
3:11 AM 53.6 °F 51.8 °F 94% 30.07 in - Calm Calm - N/A   Mostly Cloudy
3:58 AM 55.9 °F 55.0 °F 97% 30.07 in - Calm Calm - N/A   Overcast
4:22 AM 57.2 °F 55.4 °F 94% 30.06 in - Calm Calm - N/A   Overcast
4:26 AM 55.4 °F 55.4 °F 100% 30.07 in - Calm Calm - N/A   Overcast
4:38 AM 57.2 °F 55.4 °F 94% 30.07 in - Calm Calm - N/A   Overcast
4:49 AM 57.2 °F 55.4 °F 94% 30.07 in - Calm Calm - N/A   Overcast
4:58 AM 57.0 °F 55.0 °F 93% 30.07 in - Calm Calm - N/A   Overcast
5:58 AM 55.9 °F 54.0 °F 93% 30.08 in - Calm Calm - N/A   Mostly Cloudy
6:02 AM 55.4 °F 53.6 °F 94% 30.08 in - Calm Calm - N/A   Mostly Cloudy
6:28 AM 55.4 °F 53.6 °F 94% 30.08 in - Calm Calm - N/A   Scattered Clouds
6:58 AM 55.9 °F 54.0 °F 93% 30.08 in 6.0 mi Calm Calm - N/A   Partly Cloudy
7:58 AM 57.9 °F 55.9 °F 93% 30.09 in - Calm Calm - N/A   Mostly Cloudy
8:14 AM 60.8 °F 57.2 °F 88% 30.10 in 7.0 mi Calm Calm - N/A   Mostly Cloudy
8:18 AM 60.8 °F 57.2 °F 88% 30.10 in 7.0 mi Calm Calm - N/A   Mostly Cloudy
8:44 AM 62.6 °F 57.2 °F 82% 30.10 in 7.0 mi Calm Calm - N/A   Overcast
8:58 AM 62.1 °F 59.0 °F 90% 30.11 in 7.0 mi West 3.5 mph - N/A   Overcast
9:22 AM 64.4 °F 60.8 °F 88% 30.11 in - SW 3.5 mph - N/A   Overcast
9:58 AM 66.0 °F 62.1 °F 87% 30.11 in - Calm Calm - N/A   Overcast
10:58 AM 66.9 °F 63.0 °F 87% 30.11 in 8.0 mi Calm Calm - N/A   Overcast
11:58 AM 66.9 °F 64.0 °F 90% 30.11 in 5.0 mi NW 4.6 mph - 0.00 in Rain Light Rain
12:13 PM 66.2 °F 64.4 °F 94% 30.10 in - North 3.5 mph - 0.02 in Rain , Thunderstorm Light Thunderstorms and Rain
12:41 PM 64.4 °F 62.6 °F 94% 30.09 in - ENE 4.6 mph - 0.08 in Rain , Thunderstorm Thunderstorms and Rain
12:58 PM 63.0 °F 62.1 °F 97% 30.08 in 3.0 mi NE 5.8 mph - 0.17 in Rain , Thunderstorm Heavy Thunderstorms and Rain
1:03 PM 62.6 °F 62.6 °F 100% 30.08 in 2.0 mi NE 5.8 mph - 0.03 in Rain , Thunderstorm Thunderstorms and Rain
1:29 PM 62.6 °F 60.8 °F 94% 30.10 in 1.0 mi NNW 10.4 mph - 0.18 in Rain , Thunderstorm Heavy Thunderstorms and Rain
1:54 PM 62.6 °F 60.8 °F 94% 30.07 in 1.0 mi NE 6.9 mph - 0.40 in Rain , Thunderstorm Light Thunderstorms and Rain
1:58 PM 63.0 °F 61.0 °F 93% 30.07 in 2.0 mi Calm Calm - 0.40 in Rain , Thunderstorm Light Rain
1:59 PM 62.6 °F 60.8 °F 94% 30.07 in - Calm Calm - 0.00 in Rain , Thunderstorm Light Thunderstorms and Rain
2:10 PM 62.6 °F 62.6 °F 100% 30.06 in - East 3.5 mph - 0.00 in Rain Light Rain
2:25 PM 62.6 °F 62.6 °F 100% 30.06 in 2.0 mi NNE 5.8 mph - 0.01 in Rain Light Rain
2:58 PM 63.0 °F 61.0 °F 93% 30.05 in 2.0 mi NE 9.2 mph - 0.07 in Rain Light Rain
3:13 PM 62.6 °F 59.0 °F 88% 30.05 in 6.0 mi North 6.9 mph - 0.00 in Rain Light Rain
3:58 PM 62.1 °F 60.1 °F 93% 30.06 in 6.0 mi NNE 5.8 mph - 0.00 in Rain Light Rain
4:58 PM 61.0 °F 57.9 °F 90% 30.07 in 3.0 mi NNW 6.9 mph - 0.06 in Rain Rain
5:58 PM 61.0 °F 57.9 °F 90% 30.08 in 5.0 mi SW 3.5 mph - 0.05 in Rain Light Rain
6:58 PM 60.1 °F 59.0 °F 96% 30.07 in 7.0 mi SSW 3.5 mph - 0.01 in   Mostly Cloudy
7:58 PM 60.1 °F 59.0 °F 96% 30.06 in 7.0 mi Calm Calm - 0.01 in Rain Light Rain
8:58 PM 60.1 °F 59.0 °F 96% 30.05 in - South 4.6 mph - 0.01 in   Overcast
9:58 PM 60.1 °F 57.9 °F 93% 30.05 in - SW 3.5 mph - 0.00 in   Scattered Clouds
10:58 PM 60.1 °F 59.0 °F 96% 30.06 in - SW 8.1 mph - 0.04 in Rain Rain
11:58 PM 61.0 °F 59.0 °F 93% 30.04 in - SSW 8.1 mph - 0.13 in Rain Light Rain